FW2402 Weather Reports


time (UTC)temp
F
wind
direction
speed
knots
gust
knots
rain 1hr
in
rain 24hr
in
rain mn
in
humidity
%
barometer
mb
20260505041537 64 0 0.0 0.0 0.00 0.00 0.00 82 1015.6
20260505041020 64 0 0.0 0.0 0.00 0.00 0.00 80 1015.6
20260505040520 65 0 0.0 0.9 0.00 0.00 0.00 79 1015.5
20260505040050 66 0 0.0 1.7 0.00 0.00 0.00 78 1015.6
20260505035521 67 0 0.0 1.7 0.00 0.00 0.00 76 1015.6
20260505035020 67 68 0.9 1.7 0.00 0.00 0.00 75 1015.4
20260505034552 68 0 0.0 2.6 0.00 0.00 0.00 74 1015.4
20260505034018 68 0 0.9 3.5 0.00 0.00 0.00 74 1015.5
20260505033518 68 75 0.9 3.5 0.00 0.00 0.00 73 1015.5
20260505033043 69 83 0.9 3.5 0.00 0.00 0.00 73 1015.5
20260505032517 69 71 1.7 3.5 0.00 0.00 0.00 73 1015.5
20260505032018 69 69 1.7 3.5 0.00 0.00 0.00 72 1015.5
20260505031538 69 75 1.7 5.2 0.00 0.00 0.00 72 1015.5
20260505031017 69 99 1.7 6.1 0.00 0.00 0.00 72 1015.6
20260505030517 69 43 3.5 6.1 0.00 0.00 0.00 71 1015.6
20260505030046 69 81 2.6 6.1 0.00 0.00 0.00 71 1015.7
20260505025521 70 61 3.5 6.1 0.00 0.00 0.00 71 1015.6
20260505025017 70 98 3.5 6.1 0.00 0.00 0.00 71 1015.6
20260505024536 70 86 2.6 7.8 0.00 0.00 0.00 71 1015.6
20260505024021 70 78 2.6 7.8 0.00 0.00 0.00 71 1015.4
20260505023521 70 82 3.5 8.7 0.00 0.00 0.00 71 1015.4
20260505023046 70 78 3.5 8.7 0.00 0.00 0.00 70 1015.4
20260505022521 70 138 4.3 7.8 0.00 0.00 0.00 70 1015.4
20260505022021 70 92 2.6 7.8 0.00 0.00 0.00 70 1015.4
20260505021541 70 121 3.5 7.8 0.00 0.00 0.00 70 1015.4
20260505021024 70 74 3.5 7.0 0.00 0.00 0.00 70 1015.3
20260505020521 70 80 3.5 7.0 0.00 0.00 0.00 70 1015.3
20260505020052 70 80 3.5 7.0 0.00 0.00 0.00 70 1015.2
20260505015522 70 82 2.6 6.1 0.00 0.00 0.00 69 1015.2
20260505015018 71 86 2.6 7.0 0.00 0.00 0.00 69 1015.1
20260505014542 71 68 3.5 7.0 0.00 0.00 0.00 69 1015.1
20260505014021 71 92 2.6 7.0 0.00 0.00 0.00 69 1015.0
20260505013525 71 92 2.6 7.8 0.00 0.00 0.00 68 1014.9
20260505013041 71 94 4.3 7.8 0.00 0.00 0.00 68 1014.9
20260505012522 71 98 3.5 7.0 0.00 0.00 0.00 68 1014.9
20260505012021 71 86 2.6 6.1 0.00 0.00 0.00 68 1014.7
20260505011536 71 65 2.6 5.2 0.00 0.00 0.00 67 1014.6
20260505011021 71 85 2.6 4.3 0.00 0.00 0.00 67 1014.6
20260505010521 72 82 1.7 5.2 0.00 0.00 0.00 67 1014.5
20260505010104 72 93 2.6 5.2 0.00 0.00 0.00 67 1014.4
20260505005521 72 74 2.6 7.0 0.00 0.00 0.00 66 1014.3
20260505005021 72 98 2.6 7.0 0.00 0.00 0.00 66 1014.3
20260505004556 72 107 2.6 7.0 0.00 0.00 0.00 65 1014.1
20260505004021 73 109 3.5 8.7 0.00 0.00 0.00 65 1014.2
20260505003525 73 83 3.5 8.7 0.00 0.00 0.00 65 1014.1
20260505003042 73 86 3.5 8.7 0.00 0.00 0.00 64 1014.2
20260505002521 73 105 2.6 5.2 0.00 0.00 0.00 63 1014.2
20260505002020 74 80 2.6 6.1 0.00 0.00 0.00 63 1014.2
20260505001541 74 79 2.6 6.1 0.00 0.00 0.00 62 1014.2
20260505001017 74 102 2.6 7.0 0.00 0.00 0.00 62 1014.2
20260505000519 74 90 2.6 7.0 0.00 0.00 0.00 61 1013.9
20260505000038 74 121 2.6 7.0 0.00 0.00 0.00 61 1013.9
20260504235517 75 123 2.6 8.7 0.00 0.00 0.00 61 1013.9
20260504235021 75 88 3.5 9.6 0.00 0.00 0.00 60 1013.8
20260504234537 75 84 4.3 10.4 0.00 0.00 0.00 59 1013.7
20260504234021 76 69 4.3 11.3 0.00 0.00 0.00 59 1013.8
20260504233521 76 82 7.0 11.3 0.00 0.00 0.00 58 1013.8
20260504233035 76 78 6.1 10.4 0.00 0.00 0.00 58 1013.7
20260504232521 77 104 5.2 11.3 0.00 0.00 0.00 56 1013.6
20260504232020 77 104 5.2 12.2 0.00 0.00 0.00 56 1013.6
20260504231558 78 116 7.8 12.2 0.00 0.00 0.00 54 1013.5
20260504231020 78 94 5.2 11.3 0.00 0.00 0.00 53 1013.6
20260504230524 78 87 6.1 12.2 0.00 0.00 0.00 53 1013.5
20260504230039 79 67 6.1 13.0 0.00 0.00 0.00 53 1013.6
20260504225521 79 58 7.0 13.0 0.00 0.00 0.00 53 1013.5
20260504225021 79 80 7.0 13.0 0.00 0.00 0.00 52 1013.6
20260504224541 80 116 5.2 11.3 0.00 0.00 0.00 51 1013.5
20260504224021 80 94 5.2 11.3 0.00 0.00 0.00 51 1013.5
20260504223520 80 84 5.2 11.3 0.00 0.00 0.00 51 1013.6
20260504223037 80 86 7.8 11.3 0.00 0.00 0.00 51 1013.6
20260504222521 80 86 6.1 11.3 0.00 0.00 0.00 50 1013.7
20260504222017 80 120 7.8 11.3 0.00 0.00 0.00 50 1013.7
20260504221550 80 82 5.2 12.2 0.00 0.00 0.00 50 1013.6
20260504221017 81 84 7.8 12.2 0.00 0.00 0.00 49 1013.6
20260504220517 81 119 7.0 12.2 0.00 0.00 0.00 49 1013.6
20260504220043 81 117 7.0 10.4 0.00 0.00 0.00 48 1013.5
20260504215517 82 80 7.0 11.3 0.00 0.00 0.00 48 1013.4
20260504215017 82 128 6.1 13.9 0.00 0.00 0.00 48 1013.5
20260504214538 81 92 8.7 13.9 0.00 0.00 0.00 48 1013.5
20260504214018 82 83 7.8 13.0 0.00 0.00 0.00 48 1013.5
20260504213517 82 92 7.0 15.6 0.00 0.00 0.00 47 1013.6
20260504213039 82 81 7.0 15.6 0.00 0.00 0.00 48 1013.6
20260504212517 82 55 9.6 15.6 0.00 0.00 0.00 47 1013.6
20260504212016 82 80 7.0 13.9 0.00 0.00 0.00 45 1013.5
20260504211535 83 73 7.8 13.9 0.00 0.00 0.00 45 1013.5
20260504211016 82 42 6.1 14.8 0.00 0.00 0.00 45 1013.6
20260504210516 83 51 9.6 14.8 0.00 0.00 0.00 44 1013.6
20260504210045 84 116 5.2 13.9 0.00 0.00 0.00 44 1013.6
20260504205516 83 80 6.1 11.3 0.00 0.00 0.00 44 1013.6
20260504205022 83 78 5.2 9.6 0.00 0.00 0.00 43 1013.7
20260504204537 82 77 5.2 9.6 0.00 0.00 0.00 44 1013.6
20260504204017 82 85 4.3 8.7 0.00 0.00 0.00 43 1013.6
20260504203517 83 50 5.2 13.9 0.00 0.00 0.00 42 1013.7
20260504203036 84 77 4.3 13.9 0.00 0.00 0.00 40 1013.7
20260504202517 83 63 4.3 7.8 0.00 0.00 0.00 41 1013.6
20260504202016 82 10 3.5 9.6 0.00 0.00 0.00 40 1013.6
20260504201535 84 79 4.3 9.6 0.00 0.00 0.00 40 1013.7
20260504201016 84 17 6.1 9.6 0.00 0.00 0.00 38 1013.8
20260504200517 84 88 3.5 9.6 0.00 0.00 0.00 37 1013.9
20260504200032 83 90 4.3 10.4 0.00 0.00 0.00 38 1013.9
20260504195516 84 65 4.3 10.4 0.00 0.00 0.00 36 1014.0
20260504195016 85 76 6.1 11.3 0.00 0.00 0.00 36 1014.0
20260504194534 84 0 4.3 11.3 0.00 0.00 0.00 34 1014.1
20260504194016 84 84 4.3 10.4 0.00 0.00 0.00 35 1014.1
20260504193517 85 107 3.5 7.8 0.00 0.00 0.00 34 1014.3
20260504193046 84 0 0.9 8.7 0.00 0.00 0.00 33 1014.3
20260504192517 84 0 4.3 8.7 0.00 0.00 0.00 35 1014.4
20260504192021 84 92 5.2 8.7 0.00 0.00 0.00 34 1014.4
20260504191603 84 69 4.3 10.4 0.00 0.00 0.00 35 1014.5
20260504191016 83 23 2.6 10.4 0.00 0.00 0.00 36 1014.5
20260504190516 83 61 6.1 10.4 0.00 0.00 0.00 35 1014.7
20260504190039 83 70 4.3 8.7 0.00 0.00 0.00 35 1014.7
20260504185516 83 64 2.6 8.7 0.00 0.00 0.00 35 1014.9
20260504185016 83 77 4.3 8.7 0.00 0.00 0.00 35 1015.0
20260504184544 83 87 5.2 11.3 0.00 0.00 0.00 34 1015.1
20260504184020 83 108 4.3 11.3 0.00 0.00 0.00 34 1015.1
20260504183517 83 80 7.0 13.9 0.00 0.00 0.00 34 1015.3
20260504183032 82 59 4.3 13.9 0.00 0.00 0.00 34 1015.3
20260504182522 83 77 5.2 13.9 0.00 0.00 0.00 36 1015.4
20260504182017 83 44 4.3 8.7 0.00 0.00 0.00 37 1015.4
20260504181540 82 117 0.9 7.0 0.00 0.00 0.00 35 1015.6
20260504181016 81 96 3.5 10.4 0.00 0.00 0.00 35 1015.6
20260504180517 81 97 5.2 10.4 0.00 0.00 0.00 34 1015.6
20260504180038 83 126 4.3 9.6 0.00 0.00 0.00 33 1015.6
20260504175516 81 98 4.3 7.8 0.00 0.00 0.00 35 1015.6
20260504175019 82 81 3.5 8.7 0.00 0.00 0.00 34 1015.6
20260504174536 81 69 2.6 9.6 0.00 0.00 0.00 37 1015.8
20260504174016 81 42 1.7 10.4 0.00 0.00 0.00 37 1015.8
20260504173517 83 30 5.2 10.4 0.00 0.00 0.00 36 1015.9
20260504173035 83 119 2.6 14.8 0.00 0.00 0.00 36 1015.8
20260504172516 81 101 4.3 14.8 0.00 0.00 0.00 38 1015.8
20260504172017 82 88 1.7 10.4 0.00 0.00 0.00 36 1016.0
20260504171543 80 22 2.6 10.4 0.00 0.00 0.00 37 1016.1
20260504171017 82 96 2.6 10.4 0.00 0.00 0.00 35 1016.1
20260504170518 81 89 4.3 10.4 0.00 0.00 0.00 37 1016.2
20260504151016 77 75 5.2 14.8 0.00 0.00 0.00 46 1017.0
20260504150519 78 55 6.1 14.8 0.00 0.00 0.00 45 1017.1
20260504141024 75 27 6.1 14.8 0.00 0.00 0.00 56 1016.8
20260504140516 75 34 6.1 14.8 0.00 0.00 0.00 56 1016.7
20260504130516 71 82 3.5 8.7 0.00 0.00 0.00 73 1016.5
20260504110515 58 0 0.0 0.0 0.00 0.00 0.00 93 1015.7
20260504100515 58 0 0.0 0.0 0.00 0.00 0.00 92 1015.3
20260504081540 58 0 0.0 0.0 0.00 0.00 0.00 92 1015.4
20260504081021 58 0 0.0 0.0 0.00 0.00 0.00 92 1015.4
20260504080518 58 0 0.0 0.0 0.00 0.00 0.00 92 1015.5
20260504050518 62 0 0.0 0.0 0.00 0.00 0.00 85 1016.5
20260504045517 62 0 0.0 0.0 0.00 0.00 0.00 84 1016.5
20260504045017 63 0 0.0 0.0 0.00 0.00 0.00 84 1016.8
20260504044537 63 0 0.0 0.0 0.00 0.00 0.00 83 1016.8
20260504044017 63 0 0.0 0.0 0.00 0.00 0.00 82 1016.8
20260504043526 63 0 0.0 0.0 0.00 0.00 0.00 82 1016.8
20260504043039 63 0 0.0 0.0 0.00 0.00 0.00 81 1017.0
20260504042516 64 0 0.0 0.0 0.00 0.00 0.00 79 1017.0
20260504042017 65 0 0.0 0.0 0.00 0.00 0.00 78 1016.9